Simultaneous Nadir Overpasses (SNOs) Predictions

Prediction of SNOs between METOP-C and LANDSAT-8 Satellite Orbit:

Table of predicted SNOs for the next 14.0 days since TLE Epoch: 4/25/2020
Index Date (METOP-C) Time (METOP-C) Lat,Lon (METOP-C) SZA (METOP-C ) Date (LANDSAT-8) Time (LANDSAT-8) Lat,Lon (LANDSAT-8) SZA (LANDSAT-8 ) Distance(km) Time Diff (sec)
1 04/25/2020 23:41:08 -81.06, 43.05 110.51 04/25/2020 23:41:18 -81.05, 42.95 110.53 1.80 10
2 04/26/2020 00:31:48 81.08,-149.16 69.54 04/26/2020 00:30:43 81.08,-149.02 69.53 2.44 65
3 04/28/2020 18:24:53 81.02, -58.75 68.51 04/28/2020 18:26:06 81.02, -58.68 68.55 1.27 73
4 04/28/2020 19:15:30 -81.08, 109.88 111.33 04/28/2020 19:15:31 -81.07, 109.69 111.35 3.32 1
5 04/28/2020 20:06:06 81.14, -80.88 68.91 04/28/2020 20:04:52 81.19, -80.85 68.92 5.48 74
6 05/01/2020 13:59:14 81.04, 8.00 67.71 05/01/2020 14:00:18 81.04, 8.00 67.74 0.19 64
7 05/01/2020 14:49:53 -81.06, 175.96 112.22 05/01/2020 14:49:44 -81.07, 176.04 112.21 1.56 9
8 05/04/2020 09:33:37 81.04, 74.38 66.90 05/04/2020 09:34:32 81.03, 74.31 66.91 1.31 55
9 05/04/2020 10:24:16 -81.06,-117.61 113.03 05/04/2020 10:23:58 -81.06,-117.63 113.04 0.54 18
10 05/07/2020 05:07:59 81.05, 141.11 66.16 05/07/2020 05:08:45 81.05, 140.95 66.16 2.66 46




NCC Satellite Simultaneous Nadir Overpasses (SNOs) Prediction Service
